Regional Weather Roundup
Issued by NWS

Home | Current Version | Previous Version | Graphics & Text | Print | Product List | Glossary On
Versions: 1 2 3 4 5 6 7 8 9 10 11 12 13 14 15 16 17 18 19 20 21 22 23 24 25 26 27 28 29 30 31 32 33 34 35 36 37 38 39 40 41 42 43 44 45 46 47 48 49 50
000
ASUS43 KMKX 150200
RWRWI

WISCONSIN REGIONAL WEATHER ROUNDUP
NATIONAL WEATHER SERVICE MILWAUKEE/SULLIVAN WI
900 PM CDT SUN SEP 14 2014

NOTE: "FAIR" INDICATES FEW OR NO CLOUDS BELOW 12,000 FEET WITH NO
SIGNIFICANT WEATHER AND/OR OBSTRUCTIONS TO VISIBILITY.

WIZ001-002-006>008-014>016-023>028-150300-
NORTHWEST WISCONSIN

CITY           SKY/WX    TMP DP  RH WIND       PRES   REMARKS
SUPERIOR ARPT  PTCLDY    49  44  83 W5        30.09R
ASHLAND        PTCLDY    46  43  89 SW6       30.10R
HAYWARD        PTCLDY    46  43  89 CALM      30.11R
SIREN          PTCLDY    49  43  80 CALM      30.11R
RICE LAKE      MOCLDY    50  46  84 CALM      30.13R
LADYSMITH      MOCLDY    51  44  76 W5        30.12R
EAU CLAIRE     CLOUDY    54  41  61 NW5       30.10S
MENOMONIE      MOCLDY    55  42  61 W3        30.11S
NEW RICHMOND   MOCLDY    50  44  79 W5        30.12R
OSCEOLA        MOCLDY    52  46  79 W3        30.14R
$$

WIZ003>005-009-010-017-018-150300-
NORTH CENTRAL WISCONSIN

CITY           SKY/WX    TMP DP  RH WIND       PRES   REMARKS
WOODRUFF       PTCLDY    52  43  72 NW5       30.09S
RHINELANDER    PTCLDY    47  41  80 W5        30.09R
EAGLE RIVER    MOCLDY    49  40  71 W5        30.07R
LAND O LAKES   MOCLDY    49  43  79 W3        30.09R
PHILLIPS       PTCLDY    46  43  90 CALM      30.10R
TOMAHAWK       MOCLDY    44  41  89 CALM      30.09R
MEDFORD        MOCLDY    51  42  71 W3        30.10R
MERRILL        MOCLDY    50  44  79 W5        30.10R
$$

WIZ029-030-035-036-043>047-150300-
CENTRAL WISCONSIN

CITY           SKY/WX    TMP DP  RH WIND       PRES   REMARKS
WAUSAU         MOCLDY    55  44  66 W5        30.09R
MOSINEE        CLEAR     54  45  71 W3        30.11R
MARSHFIELD     MOCLDY    54  43  66 NW12      30.10R
STEVENS POINT  MOCLDY    57  47  68 CALM      30.10S
WAUPACA        MOCLDY    59  50  72 NW3       30.10R
WAUTOMA        NOT AVBL
WISC RAPIDS    MOCLDY    59  50  72 CALM      30.11R
CAMP DOUGLAS   NOT AVBL
$$

WIZ011>013-019>022-031-037>040-048>050-150300-
NORTHEAST WISCONSIN

CITY           SKY/WX    TMP DP  RH WIND       PRES   REMARKS
ANTIGO         PTCLDY    52  44  73 W8        30.09R
STURGEON BAY   MOCLDY    54  46  76 S8        30.09R
GREEN BAY      MOCLDY    57  49  74 SW6       30.09R
MANITOWOC      NOT AVBL
APPLETON       MOCLDY    55  46  71 S9        30.10S
CLINTONVILLE   CLOUDY    55  50  82 SW3       30.09S
OSHKOSH        CLEAR     57  49  74 S9        30.10S
$$

WIZ032>034-041-042-053>061-150300-
SOUTHWEST WISCONSIN

CITY           SKY/WX    TMP DP  RH WIND       PRES   REMARKS
LA CROSSE      MOCLDY    62  50  64 CALM      30.11R
SPARTA         CLOUDY    59  50  72 CALM      30.12R
VIROQUA        MOCLDY    57  50  76 SW7       30.12R
BOSCOBEL       PTCLDY    56  50  80 CALM      30.14R
PRAIRIE DU CHI PTCLDY    55  50  83 CALM      30.13R
PLATTEVILLE    FAIR      55  49  80 CALM      30.16R
$$

WIZ056-057-062-063-064-067-068-150300-
SOUTH CENTRAL WISCONSIN

CITY           SKY/WX    TMP DP  RH WIND       PRES   REMARKS
BARABOO/DELLS  MOCLDY    57  46  68 SW7       30.12R
LONE ROCK      NOT AVBL
WATERTOWN      CLEAR     54  47  77 CALM      30.14S
MADISON        MOCLDY    60  47  61 S7        30.14S
MIDDLETON      FAIR      58  47  66 SW6       30.15R
MONROE         PTCLDY    55  48  76 S7        30.16R
JANESVILLE     MOCLDY    57  46  67 S6        30.16R
$$

WIZ051-052-058>065-066-070>072-150300-
SOUTHEAST WISCONSIN

CITY           SKY/WX    TMP DP  RH WIND       PRES   REMARKS
MILWAUKEE      MOCLDY    57  45  64 SW6       30.16R
WAUKESHA       CLEAR     54  45  71 SW3       30.17R
MILWAUKEE/TIMM CLEAR     57  43  58 S9        30.16S
RACINE         PTCLDY    55  48  77 S3        30.18R
BURLINGTON     PTCLDY    50  47  87 CALM      30.17R
KENOSHA        MOCLDY    52  47  83 CALM      30.17R
FOND DU LAC    CLEAR     55  47  74 S7        30.12S
SHEBOYGAN      CLEAR     52  46  80 S5        30.12S
WEST BEND      CLEAR     52  43  71 CALM      30.14S
JUNEAU         CLEAR     54  47  76 S6        30.14S
$$

LSZ147-162-150300-
LAKE SUPERIOR

STATION/POSITION TIME  TEMP    WIND        PRES    WAVE
                       AIR SEA DIR/SP/G            HT/PER
                 (UTC) (F)     (DEG/KT/KT) (MB)    (FT/S)
W MID LAKE BUOY  0050   50 47  250/ 14/ 16 1016.7R   3/ 5
DEVILS ISLAND    0100   54     260/ 12/ 14 1018.0R
PORT WING        0100   54     200/  4/  6 1018.6R
SAXON HARBOR     0100   51     200/  4/  6 1018.3S
$$

LMZ867-665-643>646-150300-
LAKE MICHIGAN

STATION/POSITION TIME  TEMP    WIND        PRES    WAVE
                       AIR SEA DIR/SP/G            HT/PER
                 (UTC) (F)     (DEG/KT/KT) (MB)    (FT/S)
N MID LAKE BUOY  0050   59 59  210/ 23/ 29 1017.5R   7/ 6
NORTHPORT PIER   0100   57     160/  5/ 22 1017.9R
KEWAUNEE LAKESHO 0100   56     190/  7/ 10 1018.1R
SHEBOYGAN LAKESH 0100   60 51  200/ 13/ 14 1020.4S
PORT WASHINGTON  0100   59     260/  3/  6 1021.0S
MILWAUKEE LAKESH 0100   60     210/  6/  8   N/A
S MID LAKE BUOY  0050   61 65  190/ 12/ 14 1021.9F   1/ 3
KENOSHA   LAKESH 0100   60     190/  4/  6 1021.0S
$$

TC  - TEMPERATURE IN CELSIUS
VSB - VISIBILITY IN STATUTE MILES
WCI - WIND CHILL INDEX
HX  - HEAT INDEX




USA.gov is the U.S. government's official web portal to all federal, state and local government web resources and services.